This is the latest recevied weather packets stored in our database for station/object DM4XI-13. If no packets are shown the sender has not sent any weather packets the latest 10 day(s).
| Time | Temp. | Humidity | Pressure | Rain* | Wind** | Luminosity | Snow |
|---|---|---|---|---|---|---|---|
| 1777646932 | 22.78° C | 31% | 1023.5 hPa | 0 mm | 0.45 m/s, 349° | 349 W/m² | - |
| 1777646872 | 22.78° C | 31% | 1023.4 hPa | 0 mm | 0 m/s | 352 W/m² | - |
| 1777646810 | 22.22° C | 31% | 1023.5 hPa | 0 mm | 0 m/s | 355 W/m² | - |
| 1777646749 | 22.22° C | 31% | 1023.5 hPa | 0 mm | 0.45 m/s, 349° | 357 W/m² | - |
| 1777646688 | 22.22° C | 32% | 1023.5 hPa | 0 mm | 0 m/s | 357 W/m² | - |
| 1777646627 | 22.22° C | 32% | 1023.4 hPa | 0 mm | 0.45 m/s, 188° | 360 W/m² | - |
| 1777646566 | 22.22° C | 31% | 1023.4 hPa | 0 mm | 1.34 m/s, 177° | 363 W/m² | - |
| 1777646505 | 21.67° C | 33% | 1023.4 hPa | 0 mm | 0.45 m/s, 163° | 365 W/m² | - |
| 1777646444 | 21.67° C | 33% | 1023.6 hPa | 0 mm | 0.89 m/s, 208° | 367 W/m² | - |
| 1777646383 | 21.67° C | 32% | 1023.5 hPa | 0 mm | 1.34 m/s, 348° | 370 W/m² | - |
| 1777646322 | 21.67° C | 31% | 1023.4 hPa | 0 mm | 1.34 m/s, 27° | 373 W/m² | - |
| 1777646261 | 21.67° C | 33% | 1023.5 hPa | 0 mm | 0.89 m/s, 331° | 375 W/m² | - |
| 1777646200 | 22.22° C | 31% | 1023.5 hPa | 0 mm | 2.24 m/s, 350° | 378 W/m² | - |
| 1777646139 | 22.22° C | 31% | 1023.6 hPa | 0 mm | 0.89 m/s, 74° | 379 W/m² | - |
| 1777646078 | 21.67° C | 31% | 1023.7 hPa | 0 mm | 0.89 m/s, 282° | 381 W/m² | - |
| 1777646019 | 21.67° C | 33% | 1023.6 hPa | 0 mm | 1.34 m/s, 140° | 384 W/m² | - |
| 1777645956 | 21.67° C | 33% | 1023.5 hPa | 0 mm | 1.34 m/s, 351° | 387 W/m² | - |
| 1777645895 | 21.67° C | 32% | 1023.5 hPa | 0 mm | 2.68 m/s, 292° | 389 W/m² | - |
| 1777645834 | 21.67° C | 32% | 1023.5 hPa | 0 mm | 0.89 m/s, 155° | 391 W/m² | - |
| 1777645773 | 21.67° C | 31% | 1023.5 hPa | 0 mm | 0.89 m/s, 129° | 393 W/m² | - |
| 1777645712 | 21.67° C | 31% | 1023.6 hPa | 0 mm | 0.89 m/s, 141° | 395 W/m² | - |
| 1777645651 | 22.22° C | 32% | 1023.7 hPa | 0 mm | 0 m/s | 397 W/m² | - |
| 1777645590 | 22.22° C | 30% | 1023.5 hPa | 0 mm | 0.45 m/s, 162° | 400 W/m² | - |
| 1777645529 | 22.22° C | 31% | 1023.6 hPa | 0 mm | 0.89 m/s, 166° | 402 W/m² | - |
| 1777645468 | 22.22° C | 30% | 1023.7 hPa | 0 mm | 0.45 m/s, 55° | 403 W/m² | - |
* Rain latest hour (hover to see other rain measurements)
** Current wind speed in m/s (hover to see current wind gust speed)